Location: Balsareny
(41.8670°N, 1.8830°E)
Time: 10:55:43
(UTC+01:00)

Envisat - Pass Details

Date: 03 December 2021
Orbit: 764 x 766 km, 98.2° (Epoch: 15 January)

Event Time Altitude Azimuth Distance (km) Brightness Sun altitude
Rises 05:29:52 0° 18° (NNE) 3,241 6.4 -27.8°
Reaches altitude 10° 05:32:15 10° 23° (NNE) 2,310 5.7 -27.3°
Maximum altitude 05:37:12 50° 99° (E) 964 3.8 -26.4°
Drops below altitude 10° 05:42:07 10° 175° (S) 2,292 5.6 -25.5°
Sets 05:44:28 0° 181° (S) 3,214 6.3 -25.1°
